Total_Precipitation_Accumulation
0.05 0.13 0.29 0.45 0.75 1.19 1.15 0.67 0.43 0.40 0.44 0.43 0.51 0.51 0.47 0.47 0.63 1.01 0.41 0.14 0.07 0.05 0.06 0.13 0.15 0.14 0.15 0.17 0.22 0.26 0.26 0.24 0.21 0.20 0.20 0.23 0.26 0.24 0.24 0.28 0.34 0.37 0.38 0.36 0.36 0.36 0.37 0.37 0.42
0.06 0.13 0.27 0.52 1.05 1.53 1.19 0.57 0.37 0.41 0.42 0.41 0.45 0.53 0.59 0.40 0.26 0.23 0.20 0.12 0.06 0.04 0.04 0.08 0.13 0.13 0.13 0.15 0.20 0.25 0.27 0.25 0.23 0.22 0.22 0.24 0.29 0.34 0.33 0.35 0.40 0.40 0.38 0.35 0.34 0.32 0.32 0.33 0.37
0.07 0.12 0.24 0.59 0.92 1.11 0.84 0.40 0.35 0.33 0.43 0.49 0.50 0.49 0.54 0.35 0.23 0.15 0.15 0.12 0.07 0.04 0.05 0.12 0.14 0.11 0.10 0.13 0.19 0.23 0.24 0.22 0.21 0.19 0.23 0.26 0.31 0.36 0.40 0.39 0.39 0.41 0.39 0.35 0.32 0.28 0.27 0.30 0.35
0.07 0.11 0.27 0.51 0.52 0.52 0.44 0.32 0.29 0.29 0.41 0.48 0.57 0.56 0.44 0.28 0.25 0.21 0.15 0.13 0.07 0.06 0.06 0.10 0.14 0.12 0.11 0.11 0.14 0.20 0.23 0.21 0.22 0.23 0.26 0.29 0.31 0.34 0.34 0.33 0.34 0.38 0.38 0.35 0.31 0.25 0.28 0.33 0.37
0.07 0.15 0.40 0.46 0.37 0.42 0.40 0.31 0.29 0.25 0.36 0.50 0.50 0.60 0.58 0.38 0.26 0.20 0.15 0.16 0.11 0.07 0.07 0.09 0.12 0.12 0.12 0.12 0.14 0.17 0.21 0.22 0.23 0.25 0.26 0.29 0.32 0.36 0.33 0.30 0.30 0.35 0.37 0.34 0.30 0.27 0.32 0.36 0.40
0.06 0.20 0.38 0.35 0.28 0.28 0.29 0.25 0.27 0.28 0.37 0.59 0.50 0.59 0.77 0.57 0.38 0.29 0.19 0.19 0.16 0.12 0.07 0.09 0.15 0.17 0.19 0.17 0.19 0.20 0.20 0.23 0.27 0.26 0.24 0.26 0.30 0.31 0.33 0.32 0.31 0.34 0.37 0.34 0.29 0.34 0.37 0.40 0.44
0.05 0.15 0.24 0.25 0.20 0.22 0.23 0.24 0.27 0.25 0.42 0.71 0.55 0.70 1.00 0.93 0.56 0.43 0.40 0.31 0.26 0.23 0.20 0.16 0.17 0.21 0.25 0.27 0.25 0.26 0.26 0.26 0.30 0.29 0.27 0.29 0.29 0.29 0.32 0.40 0.41 0.39 0.40 0.37 0.31 0.31 0.32 0.32 0.38
0.03 0.06 0.12 0.17 0.16 0.16 0.16 0.18 0.21 0.34 0.45 0.58 0.48 0.71 1.20 1.08 0.68 0.62 0.68 0.60 0.63 0.57 0.43 0.28 0.26 0.28 0.25 0.24 0.30 0.34 0.31 0.30 0.31 0.30 0.29 0.31 0.32 0.33 0.38 0.43 0.48 0.51 0.49 0.45 0.38 0.33 0.33 0.37 0.43
0.03 0.07 0.12 0.13 0.13 0.13 0.12 0.14 0.17 0.30 0.46 0.61 0.64 0.70 0.92 0.82 0.79 0.85 0.94 0.99 1.00 1.07 0.89 0.54 0.40 0.37 0.37 0.30 0.32 0.43 0.42 0.38 0.38 0.41 0.41 0.49 0.61 0.61 0.71 0.67 0.72 0.72 0.67 0.62 0.59 0.57 0.55 0.51 0.47
0.03 0.07 0.07 0.07 0.08 0.11 0.10 0.13 0.21 0.35 0.61 0.88 0.90 0.90 1.06 0.99 0.81 0.85 0.90 1.04 1.13 1.25 1.13 0.83 0.70 0.53 0.45 0.41 0.52 0.69 0.64 0.65 0.65 0.75 0.75 0.99 1.20 1.13 0.89 0.96 1.19 1.19 1.16 1.06 1.05 1.05 0.88 0.70 0.66
0.02 0.03 0.04 0.05 0.05 0.07 0.09 0.13 0.20 0.40 0.76 1.20 1.45 1.47 1.33 1.19 1.10 1.05 1.00 1.17 1.37 1.39 1.24 1.00 0.96 0.86 0.69 0.77 0.71 0.83 0.98 1.09 0.96 0.93 1.01 1.34 1.27 1.04 1.03 1.11 1.33 1.54 1.49 1.39 1.54 1.63 1.33 1.27 1.50
0.01 0.01 0.01 0.02 0.03 0.04 0.09 0.13 0.21 0.39 0.73 1.01 1.24 1.53 1.65 1.49 1.51 1.47 1.42 1.66 1.83 1.71 1.53 1.31 1.16 1.04 1.00 0.97 0.91 0.93 0.98 1.12 1.07 1.20 1.20 1.38 1.59 1.52 1.51 1.59 1.64 1.76 1.88 2.14 2.08 2.13 1.96 1.86 1.80
0.01 0.01 0.02 0.02 0.03 0.04 0.07 0.17 0.28 0.42 0.55 0.77 0.93 1.10 1.36 1.70 2.01 2.10 2.17 2.57 2.41 2.22 2.08 1.88 1.55 1.50 1.41 1.44 1.42 1.20 1.21 1.28 1.38 1.55 1.55 1.52 1.73 1.77 1.84 1.87 1.90 1.80 1.92 2.09 2.32 2.24 2.32 2.38 2.18
0.01 0.02 0.02 0.04 0.04 0.05 0.09 0.22 0.28 0.45 0.54 0.68 0.89 1.09 1.62 2.20 2.37 2.62 2.98 3.29 3.13 2.90 2.90 2.69 2.34 2.27 2.13 1.91 1.79 1.71 1.58 1.68 1.73 1.80 1.81 1.80 2.01 2.17 2.11 1.95 1.96 1.89 1.93 2.00 2.18 2.29 2.59 2.56 2.48
0.01 0.03 0.05 0.06 0.06 0.08 0.11 0.29 0.37 0.54 0.64 0.76 1.11 1.30 1.75 2.09 2.36 2.50 2.94 3.30 3.26 3.18 3.35 3.34 3.18 3.15 2.96 2.65 2.32 2.08 2.04 1.95 2.08 2.16 2.14 2.18 2.24 2.37 2.28 2.14 1.97 2.00 2.04 2.15 2.18 2.32 2.60 2.58 2.47
0.03 0.08 0.14 0.11 0.09 0.12 0.20 0.56 0.53 0.63 0.85 1.09 1.33 1.47 1.71 1.88 2.25 2.39 2.75 3.24 3.47 3.47 3.66 3.87 3.82 3.80 3.53 3.22 2.89 2.60 2.42 2.34 2.34 2.33 2.33 2.26 2.40 2.44 2.42 2.20 1.96 2.10 2.07 2.17 2.37 2.47 2.63 2.78 2.79
0.05 0.11 0.19 0.22 0.18 0.14 0.31 0.74 0.77 0.86 1.00 1.12 1.24 1.48 1.65 1.64 2.00 2.43 2.74 3.30 3.69 3.82 4.19 4.54 4.60 4.48 4.10 3.64 3.38 3.25 3.01 2.77 2.59 2.58 2.45 2.38 2.42 2.33 2.38 2.16 2.05 2.17 2.30 2.30 2.16 2.57 2.80 2.84 2.86
0.06 0.07 0.13 0.20 0.20 0.19 0.37 0.58 0.72 0.92 1.07 1.19 1.20 1.32 1.36 1.50 1.97 2.50 2.84 3.18 3.81 4.33 4.91 4.92 4.83 5.06 4.82 4.43 4.15 3.86 3.46 3.14 2.84 2.69 2.52 2.33 2.24 2.18 2.38 2.07 2.04 2.25 2.41 2.39 2.45 2.77 2.88 2.75 2.86
0.06 0.10 0.18 0.22 0.21 0.33 0.51 0.68 0.81 0.94 0.99 1.16 1.26 1.22 1.26 1.56 1.98 2.40 2.80 3.20 3.60 4.16 4.69 5.20 5.22 5.10 4.87 4.51 4.03 3.64 3.27 3.09 2.84 2.59 2.37 2.31 2.28 2.33 2.61 2.32 2.39 2.35 2.31 2.33 2.50 2.69 2.61 2.46 2.83
0.08 0.13 0.22 0.27 0.23 0.33 0.51 0.77 0.94 0.95 0.94 1.02 1.19 1.35 1.37 1.64 1.95 2.38 2.84 3.08 3.24 3.57 4.02 4.40 4.61 4.25 3.81 3.59 3.49 3.35 3.32 2.97 2.82 2.75 2.69 2.49 2.49 2.42 2.40 2.46 2.35 2.37 2.39 2.21 2.27 2.53 2.41 2.06 2.43
0.10 0.11 0.13 0.18 0.21 0.34 0.55 0.92 1.05 0.89 0.85 0.93 1.05 1.34 1.54 1.59 1.85 2.17 2.61 2.80 2.87 3.02 3.18 3.32 3.44 3.40 3.34 3.42 3.51 3.56 3.64 3.33 3.20 3.09 2.93 2.62 2.56 2.46 2.46 2.30 2.17 2.22 2.17 2.05 2.01 2.20 2.28 2.07 2.06
0.13 0.08 0.06 0.10 0.23 0.50 0.63 1.10 1.23 1.01 0.95 1.01 1.06 1.19 1.29 1.44 1.53 1.65 1.96 2.36 2.35 2.38 2.62 3.00 3.13 3.19 3.35 3.60 3.60 3.57 3.46 3.31 3.29 3.36 3.32 3.21 2.99 2.72 2.50 2.27 2.10 1.99 1.90 1.91 1.70 1.91 2.04 2.09 1.79
0.07 0.05 0.06 0.11 0.22 0.42 0.52 0.81 1.09 1.14 1.08 1.00 0.99 1.10 1.16 1.23 1.28 1.37 1.56 1.99 2.09 2.01 2.25 2.70 3.14 3.35 3.54 3.74 3.81 3.97 3.83 3.60 3.42 3.44 3.48 3.27 3.07 2.81 2.51 2.36 2.21 2.05 1.90 1.79 1.71 1.83 1.77 1.76 1.67
0.05 0.07 0.16 0.23 0.43 0.79 0.64 0.68 1.10 1.11 0.96 0.87 0.79 0.83 0.94 0.92 0.97 1.09 1.34 1.79 2.06 2.15 2.35 2.64 2.99 3.29 3.51 3.63 3.68 3.68 3.62 3.51 3.27 3.14 2.91 2.62 2.52 2.41 2.24 2.15 2.04 1.89 1.87 1.87 1.81 1.74 1.68 1.69 1.74
0.06 0.16 0.54 0.86 1.14 1.18 0.63 0.65 0.98 0.86 0.82 0.75 0.81 0.84 0.75 0.74 0.81 0.78 0.86 1.04 1.20 1.39 1.62 1.82 2.08 2.40 2.70 2.90 2.97 2.90 3.02 2.99 2.70 2.47 2.31 2.04 1.84 1.68 1.67 1.74 1.74 1.68 1.71 1.74 1.79 1.65 1.56 1.62 1.71
0.07 0.11 0.34 0.56 0.72 0.86 0.78 1.08 1.07 0.74 0.65 0.65 0.73 0.69 0.54 0.51 0.50 0.48 0.53 0.61 0.82 1.05 1.35 1.52 1.61 1.74 2.03 2.22 2.26 2.28 2.32 2.25 2.06 2.11 1.91 1.72 1.57 1.44 1.51 1.57 1.55 1.54 1.56 1.54 1.68 1.53 1.45 1.47 1.47
0.06 0.06 0.10 0.17 0.29 0.58 0.90 1.24 1.15 0.79 0.70 0.64 0.55 0.47 0.41 0.33 0.32 0.33 0.36 0.45 0.61 0.86 1.05 1.15 1.32 1.51 1.77 2.00 1.96 1.91 1.77 1.72 1.76 1.76 1.64 1.54 1.55 1.45 1.50 1.45 1.48 1.51 1.56 1.62 1.67 1.52 1.44 1.53 1.45
0.07 0.08 0.09 0.14 0.30 0.52 0.81 1.16 1.28 1.00 0.91 0.72 0.63 0.65 0.46 0.29 0.26 0.29 0.31 0.40 0.47 0.59 0.80 1.00 1.17 1.39 1.55 1.67 1.68 1.57 1.54 1.49 1.51 1.47 1.43 1.39 1.46 1.54 1.57 1.52 1.56 1.56 1.54 1.57 1.58 1.37 1.37 1.53 1.56
0.10 0.10 0.10 0.11 0.15 0.36 0.72 0.97 0.92 0.88 0.78 0.65 0.65 0.61 0.47 0.34 0.25 0.24 0.29 0.36 0.49 0.63 0.81 1.04 1.21 1.31 1.39 1.38 1.40 1.44 1.39 1.38 1.40 1.32 1.27 1.31 1.44 1.52 1.53 1.51 1.54 1.53 1.50 1.54 1.54 1.38 1.47 1.55 1.56
0.11 0.11 0.12 0.16 0.15 0.17 0.38 0.69 0.63 0.59 0.58 0.60 0.60 0.59 0.51 0.41 0.36 0.36 0.41 0.47 0.55 0.66 0.80 1.05 1.29 1.34 1.39 1.45 1.57 1.66 1.67 1.66 1.58 1.40 1.31 1.38 1.46 1.53 1.56 1.57 1.59 1.49 1.50 1.65 1.67 1.57 1.64 1.67 1.62